FW7399 Weather Reports


time (UTC)temp
C
wind
direction
speed
KPH
gust
KPH
rain 1hr
cm
rain 24hr
cm
rain mn
cm
humidity
%
barometer
mb
20260507060902 3 134 3.2 4.8 0.00 0.00 0.00 65 1015.3
20260507060403 3 134 3.2 4.8 0.00 0.00 0.00 64 1015.3
20260507055903 3 134 3.2 4.8 0.00 0.00 0.00 64 1015.3
20260507054902 3 134 3.2 4.8 0.00 0.00 0.00 63 1015.2
20260507053903 4 134 1.6 4.8 0.00 0.00 0.00 62 1015.1
20260507053402 4 134 4.8 4.8 0.00 0.00 0.00 61 1015.1
20260507052904 4 134 6.4 11.3 0.00 0.00 0.00 62 1015.2
20260507052403 3 134 8.0 11.3 0.00 0.00 0.00 62 1015.1
20260507051903 3 121 6.4 8.0 0.00 0.00 0.00 63 1015.0
20260507051403 3 121 8.0 11.3 0.00 0.00 0.00 62 1015.1
20260507050903 3 114 9.7 12.9 0.00 0.00 0.00 63 1015.1
20260507050403 3 122 8.0 12.9 0.00 0.00 0.00 63 1015.1
20260507045403 4 109 8.0 9.7 0.00 0.00 0.00 62 1015.1
20260507044902 4 109 8.0 14.5 0.00 0.00 0.00 61 1015.3
20260507044403 5 104 8.0 12.9 0.00 0.00 0.00 61 1015.3
20260507043403 5 101 11.3 14.5 0.00 0.00 0.00 60 1015.4
20260507042903 5 101 11.3 12.9 0.00 0.00 0.00 59 1015.4
20260507042403 5 89 6.4 11.3 0.00 0.00 0.00 58 1015.4
20260507041903 5 80 8.0 12.9 0.00 0.00 0.00 58 1015.5
20260507041403 5 88 9.7 12.9 0.00 0.00 0.00 57 1015.5
20260507040902 6 97 11.3 12.9 0.00 0.00 0.00 56 1015.5
20260507040402 6 95 11.3 14.5 0.00 0.00 0.00 55 1015.6
20260507035403 6 87 9.7 14.5 0.00 0.00 0.00 55 1015.7
20260507034902 6 88 9.7 14.5 0.00 0.00 0.00 54 1015.8
20260507034403 6 81 9.7 12.9 0.00 0.00 0.00 53 1015.9
20260507033903 6 76 8.0 12.9 0.00 0.00 0.00 54 1015.9
20260507033403 6 69 4.8 8.0 0.00 0.00 0.00 53 1016.0
20260507032902 6 69 4.8 11.3 0.00 0.00 0.00 53 1016.1
20260507032403 6 85 9.7 12.9 0.00 0.00 0.00 54 1016.0
20260507031903 6 81 4.8 11.3 0.00 0.00 0.00 55 1016.0
20260507031403 6 64 4.8 4.8 0.00 0.00 0.00 54 1016.0
20260507030903 6 24 3.2 4.8 0.00 0.00 0.00 53 1016.0
20260507030402 6 24 3.2 4.8 0.00 0.00 0.00 53 1016.0
20260507025902 6 24 3.2 4.8 0.00 0.00 0.00 53 1016.2
20260507025402 6 24 3.2 4.8 0.00 0.00 0.00 52 1016.2
20260507024902 6 24 1.6 3.2 0.00 0.00 0.00 52 1016.2
20260507024403 7 24 1.6 4.8 0.00 0.00 0.00 52 1016.3
20260507023902 7 24 1.6 3.2 0.00 0.00 0.00 51 1016.2
20260507022402 7 24 3.2 4.8 0.00 0.00 0.00 49 1016.1
20260507021902 8 24 1.6 3.2 0.00 0.00 0.00 48 1016.0
20260507021404 8 24 1.6 3.2 0.00 0.00 0.00 48 1016.0
20260507020902 8 24 1.6 3.2 0.00 0.00 0.00 47 1016.0
20260507020402 8 24 1.6 1.6 0.00 0.00 0.00 47 1015.9
20260507015902 8 24 1.6 4.8 0.00 0.00 0.00 46 1015.9
20260507015402 8 24 3.2 4.8 0.00 0.00 0.00 46 1015.8
20260507014903 8 24 4.8 4.8 0.00 0.00 0.00 46 1015.9
20260507013903 9 0 3.2 4.8 0.00 0.00 0.00 45 1016.0
20260507013403 9 0 4.8 8.0 0.00 0.00 0.00 45 1015.9
20260507012903 9 0 4.8 8.0 0.00 0.00 0.00 44 1015.9
20260507012403 9 357 8.0 9.7 0.00 0.00 0.00 44 1015.9
20260507011903 10 1 4.8 11.3 0.00 0.00 0.00 44 1015.8
20260507011402 10 355 9.7 12.9 0.00 0.00 0.00 43 1015.8
20260507010403 10 357 8.0 19.3 0.00 0.00 0.00 43 1015.8
20260507005903 10 359 8.0 14.5 0.00 0.00 0.00 43 1015.8
20260507005402 10 348 11.3 19.3 0.00 0.00 0.00 42 1015.8
20260507004903 11 344 14.5 24.1 0.00 0.00 0.00 40 1015.8
20260507004402 11 298 14.5 19.3 0.00 0.00 0.00 40 1015.8
20260507003903 11 277 12.9 19.3 0.00 0.00 0.00 40 1015.8
20260507003402 11 289 14.5 19.3 0.00 0.00 0.00 40 1015.8
20260507002903 11 290 12.9 19.3 0.00 0.00 0.00 40 1015.7
20260507002402 11 296 14.5 19.3 0.00 0.00 0.00 40 1015.7
20260507001903 11 300 16.1 22.5 0.00 0.00 0.00 40 1015.8
20260507001403 11 314 14.5 19.3 0.00 0.00 0.00 40 1015.9
20260507000405 11 279 11.3 22.5 0.00 0.00 0.00 40 1016.0
20260506235902 11 293 12.9 16.1 0.00 0.00 0.00 41 1016.0
20260506235403 11 289 11.3 19.3 0.00 0.00 0.00 42 1016.0
20260506234902 11 282 12.9 19.3 0.00 0.00 0.00 41 1016.1
20260506234403 11 291 17.7 20.9 0.00 0.00 0.00 40 1016.1
20260506233403 11 293 16.1 25.7 0.00 0.00 0.00 41 1016.1
20260506232903 11 303 22.5 25.7 0.00 0.00 0.00 40 1016.1
20260506232402 11 301 19.3 25.7 0.00 0.00 0.00 41 1016.1
20260506231903 11 307 22.5 29.0 0.00 0.00 0.00 41 1016.2
20260506231403 11 325 14.5 22.5 0.00 0.00 0.00 41 1016.2
20260506230902 11 290 14.5 25.7 0.00 0.00 0.00 41 1016.2
20260506230402 10 313 19.3 22.5 0.00 0.00 0.00 42 1016.3
20260506225903 10 294 20.9 27.4 0.00 0.00 0.00 41 1016.2
20260506225403 11 297 20.9 27.4 0.00 0.00 0.00 41 1016.2
20260506224903 11 320 22.5 29.0 0.00 0.00 0.00 41 1016.3
20260506224403 10 307 16.1 22.5 0.00 0.00 0.00 41 1016.4
20260506223903 10 331 19.3 24.1 0.00 0.00 0.00 41 1016.4
20260506222903 10 327 20.9 29.0 0.00 0.00 0.00 41 1016.5
20260506222403 10 315 22.5 29.0 0.00 0.00 0.00 41 1016.5
20260506221903 10 305 22.5 32.2 0.00 0.00 0.00 41 1016.6
20260506221402 11 310 29.0 38.6 0.00 0.00 0.00 40 1016.6
20260506220902 11 300 19.3 32.2 0.00 0.00 0.00 41 1016.5
20260506220403 10 292 19.3 32.2 0.00 0.00 0.00 41 1016.6
20260506215403 11 289 25.7 32.2 0.00 0.00 0.00 41 1016.6
20260506214403 10 291 19.3 27.4 0.00 0.00 0.00 41 1016.9
20260506213903 10 315 20.9 35.4 0.00 0.00 0.00 43 1016.9
20260506212903 10 313 25.7 37.0 0.00 0.00 0.00 41 1016.9
20260506212402 10 317 25.7 32.2 0.00 0.00 0.00 42 1017.0
20260506211903 10 318 17.7 32.2 0.00 0.00 0.00 42 1017.1
20260506211403 10 317 20.9 32.2 0.00 0.00 0.00 42 1017.2
20260506210902 10 299 32.2 41.8 0.00 0.00 0.00 41 1017.3
20260506210403 10 300 22.5 33.8 0.00 0.00 0.00 41 1017.4
20260506205903 10 272 22.5 41.8 0.00 0.00 0.00 41 1017.4
20260506205403 10 285 22.5 32.2 0.00 0.00 0.00 42 1017.4
20260506204403 10 294 24.1 40.2 0.00 0.00 0.00 41 1017.7
20260506203903 11 290 27.4 35.4 0.00 0.00 0.00 41 1017.7
20260506203403 10 301 19.3 33.8 0.00 0.00 0.00 42 1017.9
20260506201403 10 287 29.0 41.8 0.00 0.00 0.00 42 1018.0
20260506200903 10 284 29.0 38.6 0.00 0.00 0.00 43 1017.9
20260506200402 10 293 22.5 32.2 0.00 0.00 0.00 43 1018.1
20260506195903 10 298 20.9 35.4 0.00 0.00 0.00 43 1018.1
20260506194903 9 290 27.4 35.4 0.00 0.00 0.00 44 1018.2
20260506194403 9 283 25.7 32.2 0.00 0.00 0.00 43 1018.2
20260506193902 9 286 22.5 37.0 0.00 0.00 0.00 45 1018.2
20260506193403 8 291 25.7 41.8 0.00 0.00 0.00 45 1018.2
20260506192903 8 295 20.9 32.2 0.00 0.00 0.00 45 1018.3
20260506191902 10 297 27.4 37.0 0.00 0.00 0.00 43 1018.6
20260506191403 10 290 27.4 38.6 0.00 0.00 0.00 44 1018.5
20260506190903 8 286 19.3 38.6 0.00 0.00 0.00 45 1018.6
20260506190402 8 289 24.1 32.2 0.00 0.00 0.00 46 1018.6
20260506185903 8 302 29.0 37.0 0.00 0.00 0.00 45 1018.7
20260506185403 8 259 25.7 37.0 0.00 0.00 0.00 46 1018.6
20260506184903 8 298 25.7 35.4 0.00 0.00 0.00 46 1018.7
20260506184403 8 316 19.3 33.8 0.00 0.00 0.00 47 1018.9
20260506183902 8 324 32.2 41.8 0.00 0.00 0.00 47 1018.9
20260506183403 8 320 32.2 41.8 0.00 0.00 0.00 46 1018.9
20260506182903 8 309 27.4 33.8 0.00 0.00 0.00 47 1018.8
20260506181903 7 318 24.1 41.8 0.00 0.00 0.00 49 1018.8
20260506181403 8 315 33.8 38.6 0.00 0.00 0.00 48 1018.8
20260506180403 8 326 27.4 33.8 0.00 0.00 0.00 47 1018.8
20260506175403 8 323 20.9 35.4 0.00 0.00 0.00 48 1018.9
20260506174902 8 313 29.0 38.6 0.00 0.00 0.00 47 1019.0
20260506174403 8 306 25.7 35.4 0.00 0.00 0.00 48 1018.9
20260506173403 7 307 27.4 35.4 0.00 0.00 0.00 48 1019.0
20260506172903 7 300 27.4 38.6 0.00 0.00 0.00 49 1019.1
20260506171903 7 290 27.4 38.6 0.00 0.00 0.00 48 1019.2
20260506171403 7 311 32.2 41.8 0.00 0.00 0.00 49 1019.0
20260506170902 7 313 25.7 40.2 0.00 0.00 0.00 50 1019.1
20260506165902 7 311 24.1 32.2 0.00 0.00 0.00 51 1019.2
20260506165403 7 296 25.7 37.0 0.00 0.00 0.00 51 1019.1
20260506164903 7 291 27.4 35.4 0.00 0.00 0.00 50 1019.1
20260506164402 7 305 33.8 41.8 0.00 0.00 0.00 50 1019.1
20260506163903 7 299 29.0 35.4 0.00 0.00 0.00 50 1019.1
20260506163403 7 294 27.4 40.2 0.00 0.00 0.00 50 1019.1
20260506162903 6 317 25.7 40.2 0.00 0.00 0.00 51 1019.1
20260506162402 6 288 25.7 38.6 0.00 0.00 0.00 51 1019.1
20260506161903 6 294 25.7 33.8 0.00 0.00 0.00 51 1019.1
20260506161403 7 323 30.6 38.6 0.00 0.00 0.00 50 1019.1
20260506160403 6 304 25.7 35.4 0.00 0.00 0.00 53 1019.1
20260506155903 6 329 27.4 37.0 0.00 0.00 0.00 52 1019.2
20260506155402 6 287 19.3 35.4 0.00 0.00 0.00 53 1019.1
20260506154903 6 304 29.0 37.0 0.00 0.00 0.00 52 1019.2
20260506154403 6 324 25.7 35.4 0.00 0.00 0.00 53 1019.2
20260506153902 6 300 32.2 41.8 0.00 0.00 0.00 52 1019.2
20260506153403 6 306 25.7 41.8 0.00 0.00 0.00 52 1019.2
20260506152902 6 302 27.4 40.2 0.00 0.00 0.00 53 1019.1
20260506152403 6 305 25.7 35.4 0.00 0.00 0.00 54 1019.2
20260506151903 6 300 22.5 29.0 0.00 0.00 0.00 54 1019.2
20260506151404 6 315 20.9 33.8 0.00 0.00 0.00 56 1019.4
20260506150903 6 305 22.5 32.2 0.00 0.00 0.00 55 1019.3
20260506150403 6 310 27.4 38.6 0.00 0.00 0.00 55 1019.3
20260506145903 6 298 22.5 32.2 0.00 0.00 0.00 57 1019.3
20260506144903 6 316 25.7 32.2 0.00 0.00 0.00 54 1019.2
20260506144403 6 287 25.7 33.8 0.00 0.00 0.00 54 1019.0
20260506143402 5 325 19.3 29.0 0.00 0.00 0.00 59 1019.1
20260506142402 5 312 22.5 29.0 0.00 0.00 0.00 59 1019.1
20260506141902 5 321 25.7 32.2 0.00 0.00 0.00 60 1019.1
20260506141403 5 305 20.9 32.2 0.00 0.00 0.00 59 1019.1
20260506140903 5 313 19.3 27.4 0.00 0.00 0.00 61 1019.0
20260506140403 5 306 20.9 27.4 0.00 0.00 0.00 60 1018.9
20260506135902 5 322 14.5 19.3 0.00 0.00 0.00 63 1018.8
20260506135404 5 318 11.3 19.3 0.00 0.00 0.00 62 1018.8
20260506134903 5 282 14.5 20.9 0.00 0.00 0.00 63 1018.9
20260506134402 4 317 14.5 19.3 0.00 0.00 0.00 63 1019.0
20260506132402 4 308 16.1 19.3 0.00 0.00 0.00 62 1019.2
20260506131903 4 312 17.7 22.5 0.00 0.00 0.00 62 1019.1
20260506131403 4 321 14.5 19.3 0.00 0.00 0.00 65 1019.0
20260506130903 3 327 12.9 19.3 0.00 0.00 0.00 65 1018.9
20260506130403 3 315 16.1 19.3 0.00 0.00 0.00 67 1019.0
20260506125903 3 306 14.5 19.3 0.00 0.00 0.00 70 1019.0
20260506125403 3 301 11.3 14.5 0.00 0.00 0.00 71 1018.9
20260506124403 3 282 3.2 4.8 0.00 0.00 0.00 74 1018.5
20260506123903 2 282 3.2 4.8 0.00 0.00 0.00 75 1018.5
20260506123403 2 282 3.2 4.8 0.00 0.00 0.00 76 1018.5
20260506122903 2 282 3.2 4.8 0.00 0.00 0.00 76 1018.5
20260506122403 2 282 3.2 4.8 0.00 0.00 0.00 76 1018.5
20260506121403 2 282 9.7 12.9 0.00 0.00 0.00 76 1018.4
20260506120403 2 287 11.3 14.5 0.00 0.00 0.00 76 1018.3
20260506115903 2 284 9.7 12.9 0.00 0.00 0.00 76 1018.2
20260506115403 1 282 9.7 12.9 0.00 0.00 0.00 75 1018.1
20260506114903 1 281 8.0 12.9 0.00 0.00 0.00 76 1018.0
20260506114403 1 265 8.0 9.7 0.00 0.00 0.00 77 1017.8
20260506113903 1 265 8.0 9.7 0.00 0.00 0.00 76 1017.7
20260506113403 1 265 4.8 9.7 0.00 0.00 0.00 77 1017.7
20260506112903 1 265 8.0 11.3 0.00 0.00 0.00 77 1017.8
20260506112403 1 277 8.0 9.7 0.00 0.00 0.00 77 1017.7
20260506111902 1 276 8.0 11.3 0.00 0.00 0.00 77 1017.7
20260506110903 1 273 8.0 9.7 0.00 0.00 0.00 77 1017.7
20260506105903 1 273 8.0 11.3 0.00 0.00 0.00 77 1017.5
20260506105403 1 275 8.0 12.9 0.00 0.00 0.00 78 1017.5
20260506104903 1 271 8.0 11.3 0.00 0.00 0.00 78 1017.5
20260506104403 1 268 9.7 12.9 0.00 0.00 0.00 78 1017.6
20260506103403 1 258 8.0 12.9 0.00 0.00 0.00 78 1017.5
20260506102903 0 266 9.7 12.9 0.00 0.00 0.00 78 1017.5
20260506102403 0 273 9.7 11.3 0.00 0.00 0.00 77 1017.4
20260506101903 0 273 8.0 11.3 0.00 0.00 0.00 77 1017.5
20260506101403 0 273 8.0 9.7 0.00 0.00 0.00 77 1017.3
20260506100903 0 273 4.8 9.7 0.00 0.00 0.00 76 1017.2
20260506100403 0 273 4.8 9.7 0.00 0.00 0.00 77 1017.1
20260506095903 0 273 8.0 11.3 0.00 0.00 0.00 76 1017.2
20260506095403 0 273 8.0 11.3 0.00 0.00 0.00 77 1017.4
20260506094903 0 270 8.0 11.3 0.00 0.00 0.00 77 1017.3
20260506094403 0 270 8.0 9.7 0.00 0.00 0.00 77 1017.2
20260506093903 0 270 9.7 11.3 0.00 0.00 0.00 76 1017.2
20260506093404 0 289 8.0 11.3 0.00 0.00 0.00 76 1017.2
20260506092903 0 294 8.0 11.3 0.00 0.00 0.00 76 1017.1
20260506092403 1 294 4.8 8.0 0.00 0.00 0.00 74 1016.8
20260506091903 1 294 3.2 4.8 0.00 0.00 0.00 74 1016.5
20260506091404 1 294 3.2 4.8 0.00 0.00 0.00 74 1016.5
20260506090903 1 294 3.2 4.8 0.00 0.00 0.00 75 1016.5
20260506090403 1 294 4.8 4.8 0.00 0.00 0.00 75 1016.7
20260506085903 1 294 4.8 4.8 0.00 0.00 0.00 75 1016.6
20260506085403 0 294 4.8 8.0 0.00 0.00 0.00 75 1016.6
20260506084903 0 294 4.8 8.0 0.00 0.00 0.00 75 1016.6
20260506083903 0 294 6.4 8.0 0.00 0.00 0.00 74 1016.8
20260506083403 0 294 4.8 8.0 0.00 0.00 0.00 74 1016.8
20260506082903 0 294 9.7 12.9 0.00 0.00 0.00 72 1016.8
20260506081403 1 324 9.7 12.9 0.00 0.00 0.00 72 1016.3
20260506080903 1 324 8.0 9.7 0.00 0.00 0.00 71 1016.1
20260506080403 1 324 8.0 9.7 0.00 0.00 0.00 69 1016.2
20260506073403 2 327 9.7 12.9 0.00 0.00 0.00 67 1016.2
20260506071403 1 343 8.0 8.0 0.00 0.00 0.00 69 1016.2
20260506070903 1 343 8.0 8.0 0.00 0.00 0.00 69 1016.4
20260506062403 2 345 9.7 14.5 0.00 0.00 0.00 66 1016.4
20260506061903 2 339 9.7 14.5 0.00 0.00 0.00 66 1016.2
20260506061403 2 336 9.7 12.9 0.00 0.00 0.00 66 1016.2